Weather Roundup
Issued by NWS Chicago, IL

Home | Current Version | Previous Version | Text Only | Print | Product List | Glossary On
Versions: 1 2 3 4 5 6 7 8 9 10 11 12 13 14 15 16 17 18 19 20 21 22 23 24 25 26 27 28 29 30 31 32 33 34 35 36 37 38 39 40 41 42 43 44 45 46 47 48 49 50
000
NZUS59 KLOT 262010
HRRLOT

CHICAGO AREA WEATHER ROUNDUP
NATIONAL WEATHER SERVICE CHICAGO/ROMEOVILLE IL
200 PM CST MON JAN 26 2015

NOTE: "FAIR" INDICATES FEW OR NO CLOUDS BELOW 12,000 FEET WITH NO
SIGNIFICANT WEATHER AND/OR OBSTRUCTIONS TO VISIBILITY.

* THESE STATIONS ARE NOT UNDER NWS QUALITY CONTROL. THEY ALSO MAY NOT
  REPORT WEATHER SUCH AS PRECIPITATION OR FOG.

ILZ005-006-012>014-019>023-262100-
NORTHEAST ILLINOIS

CITY           SKY/WX    TMP DP  RH WIND       PRES   REMARKS
OHARE          FLURRIES  26  18  71 S6        29.86F WCI  19
MIDWAY         LGT SNOW  28  20  71 S7        29.88F WCI  21
AURORA         LGT SNOW  26  18  71 S8        29.86F WCI  18
LANSING*       CLOUDY    27  21  78 SW6       29.88F WCI  20
JOLIET*        LGT SNOW  27  20  76 S5        29.88S WCI  21
WAUKEGAN       LGT SNOW  27  17  66 CALM      29.86S
DUPAGE AIRPORT LGT SNOW  26  19  74 S7        29.85F WCI  18
WHEELING       LGT SNOW  26  18  71 SW5       29.88F WCI  20
KANKAKEE*      CLOUDY    28  22  79 SW5       29.89F WCI  22
MORRIS*        MIX PCPN  26  23  87 S7        29.86F WCI  19
LEWIS AIRPORT* LGT SNOW  27  20  76 S6        29.87S WCI  20
NORTHERLY IS     N/A     28  18  66 S5          N/A  WCI  23
$$

WIZ051-052-058>065-066-070>072-262100-
SOUTHEAST WISCONSIN

CITY           SKY/WX    TMP DP  RH WIND       PRES   REMARKS
MILWAUKEE      CLOUDY    27  15  61 SE6       29.85F WCI  20
KENOSHA*       FLURRIES  27  16  63 S5        29.85F WCI  22
RACINE*        FLURRIES  27  17  66 SE8       29.87F WCI  19
BURLINGTON     LGT SNOW  24  20  83 S5        29.85S WCI  18
WAUKESHA       LGT SNOW  25  14  63 SE7       29.85F VSB 1   WCI  17
WEST BEND      LGT SNOW  27  19  74 SE5       29.84S WCI  21
$$

INZ001>003-010>013-019-020-262100-
NORTHWEST INDIANA

CITY           SKY/WX    TMP DP  RH WIND       PRES   REMARKS
GARY*          CLOUDY    28  16  59 S5        29.89F WCI  23
MICHIGAN CITY* NOT AVBL
RENSSELAER*    NOT AVBL
VALPARAISO     CLOUDY    22  16  78 S5        29.89F WCI  16
$$

LMZ740>746-262100-
SOUTHERN LAKE MICHIGAN

STATION/POSITION TIME  SKY/WX   TEMP WIND        PRES    VSBY
                                AIR  DIR/SP/G
                 (UTC)          (F)  (DEG/KT/KT) (MB)    (MI)
HARRISON CRIB    2000            26  180/  6/  8   N/A
BURNHAM HARBOR   2000            28  190/  3/  8   N/A
CALUMET HARBOR   2000            27  150/  6/  8   N/A
BURNS HARBOR     NOT AVBL
MICHIGAN CITY    2000            23  140/  3/  7   N/A
$$

ABBREVIATIONS USED IN REMARKS
   TC - TEMPERATURE IN CELSIUS
  WCI - WIND CHILL INDEX
   HX - HEAT INDEX
  VSB - VISIBILITY
$$


USA.gov is the U.S. government's official web portal to all federal, state and local government web resources and services.